Tracking 30402 objects as of 13-May-2025
HD Live streaming from Space Station
objects crossing your sky now

DMSP 5D-2 F14 DEB

Track DMSP 5D-2 F14 DEB now!
10-day predictions


NORAD ID: 62939
Int'l Code: 1997-012K
Perigee: 835.1 km
Apogee: 849.6 km
Inclination: 98.8 °
Period: 101.6 minutes
Semi major axis: 7213 km
RCS: Unknown
Launch date: April 4, 1997
Source: United States (US)
Launch site: AIR FORCE WESTERN TEST RANGE (AFWTR)

Note: This is SATELLITE DEBRIS
Your satellite tracking list
Your tracking list is empty




NASA's NSSDC Master Catalog

Two Line Element Set (TLE):
1 62939U 97012K   25132.57426377  .00002709  00000-0  13666-2 0  9994
2 62939  98.8282 181.2705 0010053 132.3957 227.8070 14.17097092 20256
Source of the keplerian elements: AFSPC